| time (UTC) | temp F | wind direction | speed MPH | gust MPH | rain 1hr in | rain 24hr in | rain mn in | humidity % | barometer mb |
| 20260904174143 | 90 | 94 | 2.0 | 3.0 | 0.00 | 0.00 | 0.00 | 77 | 1018.9 |
| 20260904173638 | 90 | 150 | 1.0 | 1.0 | 0.00 | 0.00 | 0.00 | 78 | 1018.8 |
| 20260904173128 | 90 | 146 | 2.0 | 2.0 | 0.00 | 0.00 | 0.00 | 76 | 1019.3 |
| 20260904172625 | 90 | 152 | 0.0 | 0.0 | 0.00 | 0.00 | 0.00 | 77 | 1019.1 |
| 20260904172124 | 91 | 115 | 5.0 | 5.0 | 0.00 | 0.00 | 0.00 | 75 | 1019.0 |
| 20260904171619 | 91 | 65 | 2.0 | 2.0 | 0.00 | 0.00 | 0.00 | 75 | 1019.3 |
| 20260904171115 | 90 | 129 | 3.0 | 3.0 | 0.00 | 0.00 | 0.00 | 78 | 1019.3 |
| 20260904170610 | 89 | 150 | 1.0 | 1.0 | 0.00 | 0.00 | 0.00 | 77 | 1019.3 |
| 20260904170106 | 90 | 102 | 1.0 | 1.0 | 0.00 | 0.00 | 0.00 | 77 | 1019.4 |
| 20260904165605 | 92 | 113 | 1.0 | 1.0 | 0.00 | 0.00 | 0.00 | 72 | 1019.4 |
| 20260904165104 | 92 | 210 | 2.0 | 2.0 | 0.00 | 0.00 | 0.00 | 69 | 1019.6 |
| 20260904164559 | 93 | 186 | 1.0 | 1.0 | 0.00 | 0.00 | 0.00 | 65 | 1019.6 |
| 20260904164054 | 95 | 180 | 0.0 | 0.0 | 0.00 | 0.00 | 0.00 | 66 | 1019.5 |
| 20260904163549 | 95 | 156 | 1.0 | 2.0 | 0.00 | 0.00 | 0.00 | 65 | 1019.7 |
| 20260904163044 | 93 | 186 | 1.0 | 2.0 | 0.00 | 0.00 | 0.00 | 65 | 1019.9 |
| 20260904162538 | 93 | 167 | 1.0 | 1.0 | 0.00 | 0.00 | 0.00 | 68 | 1019.8 |
| 20260904162034 | 92 | 179 | 3.0 | 3.0 | 0.00 | 0.00 | 0.00 | 69 | 1019.6 |
| 20260904161529 | 91 | 202 | 3.0 | 3.0 | 0.00 | 0.00 | 0.00 | 71 | 1019.7 |
| 20260904161024 | 92 | 167 | 1.0 | 1.0 | 0.00 | 0.00 | 0.00 | 70 | 1019.7 |
| 20260904160519 | 92 | 122 | 0.0 | 0.0 | 0.00 | 0.00 | 0.00 | 69 | 1019.7 |
| 20260904160016 | 91 | 139 | 0.0 | 0.0 | 0.00 | 0.00 | 0.00 | 71 | 1019.9 |
| 20260904155515 | 92 | 155 | 0.0 | 0.0 | 0.00 | 0.00 | 0.00 | 68 | 1020.1 |
| 20260904155014 | 92 | 155 | 0.0 | 1.0 | 0.00 | 0.00 | 0.00 | 70 | 1019.9 |
| 20260904154508 | 91 | 206 | 2.0 | 2.0 | 0.00 | 0.00 | 0.00 | 71 | 1020.0 |
| 20260904154003 | 91 | 195 | 1.0 | 2.0 | 0.00 | 0.00 | 0.00 | 71 | 1020.1 |
| 20260904153457 | 90 | 164 | 0.0 | 0.0 | 0.00 | 0.00 | 0.00 | 73 | 1019.8 |
| 20260904152954 | 90 | 161 | 1.0 | 1.0 | 0.00 | 0.00 | 0.00 | 73 | 1019.9 |
| 20260904152449 | 90 | 150 | 1.0 | 1.0 | 0.00 | 0.00 | 0.00 | 72 | 1019.8 |
| 20260904151949 | 89 | 159 | 0.0 | 0.0 | 0.00 | 0.00 | 0.00 | 74 | 1020.1 |
| 20260904151444 | 89 | 153 | 0.0 | 0.0 | 0.00 | 0.00 | 0.00 | 74 | 1020.0 |
| 20260904150939 | 90 | 197 | 1.0 | 2.0 | 0.00 | 0.00 | 0.00 | 73 | 1020.0 |
| 20260904150434 | 90 | 148 | 0.0 | 0.0 | 0.00 | 0.00 | 0.00 | 74 | 1019.9 |
| 20260904145932 | 90 | 155 | 0.0 | 0.0 | 0.00 | 0.00 | 0.00 | 73 | 1020.1 |
| 20260904145428 | 90 | 156 | 0.0 | 0.0 | 0.00 | 0.00 | 0.00 | 73 | 1019.9 |
| 20260904144924 | 90 | 151 | 0.0 | 0.0 | 0.00 | 0.00 | 0.00 | 74 | 1019.9 |
| 20260904144419 | 89 | 143 | 0.0 | 0.0 | 0.00 | 0.00 | 0.00 | 76 | 1019.7 |
| 20260904143914 | 88 | 151 | 0.0 | 1.0 | 0.00 | 0.00 | 0.00 | 78 | 1019.8 |
| 20260904143411 | 87 | 157 | 0.0 | 0.0 | 0.00 | 0.00 | 0.00 | 78 | 1019.8 |
| 20260904142902 | 87 | 160 | 0.0 | 0.0 | 0.00 | 0.00 | 0.00 | 77 | 1019.7 |
| 20260904142357 | 87 | 166 | 0.0 | 0.0 | 0.00 | 0.00 | 0.00 | 79 | 1019.8 |
| 20260904141856 | 87 | 165 | 0.0 | 0.0 | 0.00 | 0.00 | 0.00 | 79 | 1019.7 |
| 20260904141352 | 86 | 166 | 0.0 | 0.0 | 0.00 | 0.00 | 0.00 | 79 | 1019.8 |
| 20260904140848 | 85 | 161 | 0.0 | 0.0 | 0.00 | 0.00 | 0.00 | 81 | 1019.5 |
| 20260904140343 | 85 | 166 | 0.0 | 0.0 | 0.00 | 0.00 | 0.00 | 83 | 1019.7 |
| 20260904135837 | 85 | 189 | 0.0 | 1.0 | 0.00 | 0.00 | 0.00 | 83 | 1019.8 |
| 20260904135332 | 85 | 184 | 0.0 | 0.0 | 0.00 | 0.00 | 0.00 | 82 | 1019.5 |
| 20260904134828 | 85 | 168 | 0.0 | 1.0 | 0.00 | 0.00 | 0.00 | 82 | 1019.9 |
| 20260904134327 | 85 | 214 | 3.0 | 3.0 | 0.00 | 0.00 | 0.00 | 82 | 1019.5 |
| 20260904133822 | 86 | 151 | 0.0 | 1.0 | 0.00 | 0.00 | 0.00 | 81 | 1019.6 |
| 20260904133318 | 84 | 189 | 1.0 | 2.0 | 0.00 | 0.00 | 0.00 | 84 | 1019.6 |
| 20260904132818 | 84 | 192 | 1.0 | 1.0 | 0.00 | 0.00 | 0.00 | 85 | 1019.5 |
| 20260904132313 | 84 | 159 | 0.0 | 0.0 | 0.00 | 0.00 | 0.00 | 85 | 1019.4 |
| 20260904131812 | 84 | 150 | 0.0 | 0.0 | 0.00 | 0.00 | 0.00 | 85 | 1019.3 |
| 20260904131308 | 84 | 146 | 0.0 | 0.0 | 0.00 | 0.00 | 0.00 | 85 | 1019.4 |
| 20260904130807 | 84 | 138 | 0.0 | 0.0 | 0.00 | 0.00 | 0.00 | 85 | 1019.6 |
| 20260904130307 | 83 | 153 | 0.0 | 0.0 | 0.00 | 0.00 | 0.00 | 87 | 1019.4 |
| 20260904125803 | 83 | 159 | 0.0 | 0.0 | 0.00 | 0.00 | 0.00 | 87 | 1019.5 |
| 20260904125259 | 82 | 173 | 0.0 | 0.0 | 0.00 | 0.00 | 0.00 | 88 | 1019.6 |
| 20260904124758 | 82 | 164 | 0.0 | 1.0 | 0.00 | 0.00 | 0.00 | 87 | 1019.5 |
| 20260904124255 | 82 | 153 | 0.0 | 1.0 | 0.00 | 0.00 | 0.00 | 88 | 1019.5 |
| 20260904123750 | 81 | 163 | 1.0 | 1.0 | 0.00 | 0.00 | 0.00 | 89 | 1019.5 |
| 20260904123245 | 81 | 148 | 0.0 | 0.0 | 0.00 | 0.00 | 0.00 | 92 | 1019.5 |
| 20260904122739 | 80 | 145 | 0.0 | 0.0 | 0.00 | 0.00 | 0.00 | 94 | 1019.2 |
| 20260904122234 | 80 | 142 | 0.0 | 0.0 | 0.00 | 0.00 | 0.00 | 95 | 1019.6 |
| 20260904121730 | 80 | 142 | 0.0 | 0.0 | 0.00 | 0.00 | 0.00 | 95 | 1019.6 |
| 20260904121225 | 79 | 143 | 0.0 | 0.0 | 0.00 | 0.00 | 0.00 | 95 | 1019.2 |
| 20260904120721 | 78 | 143 | 0.0 | 0.0 | 0.00 | 0.00 | 0.00 | 95 | 1019.4 |
| 20260904120217 | 78 | 144 | 0.0 | 0.0 | 0.00 | 0.00 | 0.00 | 95 | 1019.3 |
| 20260904115712 | 78 | 144 | 0.0 | 0.0 | 0.00 | 0.00 | 0.00 | 95 | 1019.1 |
| 20260904115212 | 78 | 144 | 0.0 | 0.0 | 0.00 | 0.00 | 0.00 | 95 | 1019.4 |
| 20260904114707 | 77 | 143 | 0.0 | 0.0 | 0.00 | 0.00 | 0.00 | 95 | 1019.1 |
| 20260904114201 | 77 | 143 | 0.0 | 0.0 | 0.00 | 0.00 | 0.00 | 95 | 1019.0 |
| 20260904113656 | 77 | 143 | 0.0 | 0.0 | 0.00 | 0.00 | 0.00 | 95 | 1019.2 |
| 20260904113155 | 77 | 143 | 0.0 | 0.0 | 0.00 | 0.00 | 0.00 | 95 | 1018.9 |
| 20260904112650 | 77 | 143 | 0.0 | 0.0 | 0.00 | 0.00 | 0.00 | 95 | 1018.9 |
| 20260904112146 | 77 | 143 | 0.0 | 0.0 | 0.00 | 0.00 | 0.00 | 95 | 1018.8 |
| 20260904111642 | 77 | 143 | 0.0 | 0.0 | 0.00 | 0.00 | 0.00 | 95 | 1018.7 |
| 20260904111137 | 77 | 143 | 0.0 | 0.0 | 0.00 | 0.00 | 0.00 | 95 | 1019.1 |
| 20260904110632 | 77 | 143 | 0.0 | 0.0 | 0.00 | 0.00 | 0.00 | 95 | 1018.7 |
| 20260904110126 | 78 | 143 | 0.0 | 0.0 | 0.00 | 0.00 | 0.00 | 95 | 1018.7 |
| 20260904105626 | 78 | 143 | 0.0 | 0.0 | 0.00 | 0.00 | 0.00 | 95 | 1018.5 |
| 20260904105121 | 78 | 143 | 0.0 | 0.0 | 0.00 | 0.00 | 0.00 | 95 | 1018.8 |
| 20260904104617 | 78 | 143 | 0.0 | 0.0 | 0.00 | 0.00 | 0.00 | 95 | 1018.6 |
| 20260904104112 | 77 | 143 | 0.0 | 0.0 | 0.00 | 0.00 | 0.00 | 95 | 1018.3 |
| 20260904103608 | 78 | 143 | 0.0 | 0.0 | 0.00 | 0.00 | 0.00 | 95 | 1018.8 |
| 20260904103104 | 78 | 143 | 0.0 | 0.0 | 0.00 | 0.00 | 0.00 | 95 | 1018.5 |
| 20260904102600 | 78 | 143 | 0.0 | 0.0 | 0.00 | 0.00 | 0.00 | 95 | 1018.1 |
| 20260904102055 | 78 | 143 | 0.0 | 0.0 | 0.00 | 0.00 | 0.00 | 95 | 1018.2 |
| 20260904101551 | 78 | 143 | 0.0 | 0.0 | 0.00 | 0.00 | 0.00 | 95 | 1018.3 |
| 20260904101047 | 78 | 143 | 0.0 | 0.0 | 0.00 | 0.00 | 0.00 | 95 | 1018.0 |
| 20260904100542 | 78 | 143 | 0.0 | 0.0 | 0.00 | 0.00 | 0.00 | 95 | 1018.1 |
| 20260904100037 | 78 | 143 | 0.0 | 0.0 | 0.00 | 0.00 | 0.00 | 95 | 1018.1 |
| 20260904095532 | 78 | 143 | 0.0 | 0.0 | 0.00 | 0.00 | 0.00 | 95 | 1018.0 |
| 20260904095027 | 78 | 143 | 0.0 | 0.0 | 0.00 | 0.00 | 0.00 | 95 | 1017.9 |
| 20260904094521 | 78 | 143 | 0.0 | 0.0 | 0.00 | 0.00 | 0.00 | 95 | 1018.0 |
| 20260904094017 | 78 | 143 | 0.0 | 0.0 | 0.00 | 0.00 | 0.00 | 95 | 1017.9 |
| 20260904093514 | 78 | 143 | 0.0 | 0.0 | 0.00 | 0.00 | 0.00 | 95 | 1018.2 |
| 20260904093003 | 78 | 143 | 0.0 | 0.0 | 0.00 | 0.00 | 0.00 | 95 | 1018.0 |
| 20260904092459 | 78 | 143 | 0.0 | 0.0 | 0.00 | 0.00 | 0.00 | 95 | 1018.2 |
| 20260904091955 | 78 | 143 | 0.0 | 0.0 | 0.00 | 0.00 | 0.00 | 95 | 1017.9 |
| 20260904091451 | 78 | 142 | 0.0 | 0.0 | 0.00 | 0.00 | 0.00 | 95 | 1018.0 |
| 20260904090950 | 78 | 142 | 0.0 | 0.0 | 0.00 | 0.00 | 0.00 | 95 | 1017.9 |
| 20260904090446 | 78 | 142 | 0.0 | 0.0 | 0.00 | 0.00 | 0.00 | 95 | 1018.1 |
| 20260904085941 | 78 | 142 | 0.0 | 0.0 | 0.00 | 0.00 | 0.00 | 95 | 1018.3 |
| 20260904085436 | 78 | 142 | 0.0 | 0.0 | 0.00 | 0.00 | 0.00 | 95 | 1018.0 |
| 20260904084936 | 78 | 142 | 0.0 | 0.0 | 0.00 | 0.00 | 0.00 | 95 | 1018.1 |
| 20260904084432 | 78 | 142 | 0.0 | 0.0 | 0.00 | 0.00 | 0.00 | 95 | 1018.3 |
| 20260904083928 | 78 | 142 | 0.0 | 0.0 | 0.00 | 0.00 | 0.00 | 95 | 1018.0 |
| 20260904083424 | 78 | 142 | 0.0 | 0.0 | 0.00 | 0.00 | 0.00 | 95 | 1017.9 |
| 20260904082920 | 78 | 142 | 0.0 | 0.0 | 0.00 | 0.00 | 0.00 | 95 | 1017.9 |
| 20260904082420 | 78 | 142 | 0.0 | 0.0 | 0.00 | 0.00 | 0.00 | 95 | 1017.9 |
| 20260904081915 | 78 | 142 | 0.0 | 0.0 | 0.00 | 0.00 | 0.00 | 95 | 1018.1 |
| 20260904081410 | 78 | 142 | 0.0 | 0.0 | 0.00 | 0.00 | 0.00 | 95 | 1018.1 |
| 20260904080906 | 78 | 142 | 0.0 | 0.0 | 0.00 | 0.00 | 0.00 | 95 | 1018.0 |
| 20260904080401 | 78 | 142 | 0.0 | 0.0 | 0.00 | 0.00 | 0.00 | 95 | 1017.9 |
| 20260904075857 | 78 | 142 | 0.0 | 0.0 | 0.00 | 0.00 | 0.00 | 95 | 1018.0 |
| 20260904075353 | 78 | 142 | 0.0 | 0.0 | 0.00 | 0.00 | 0.00 | 95 | 1017.9 |
| 20260904074851 | 78 | 142 | 0.0 | 0.0 | 0.00 | 0.00 | 0.00 | 95 | 1017.8 |
| 20260904074346 | 78 | 143 | 0.0 | 0.0 | 0.00 | 0.00 | 0.00 | 95 | 1018.2 |
| 20260904073842 | 78 | 143 | 0.0 | 0.0 | 0.00 | 0.00 | 0.00 | 95 | 1018.1 |
| 20260904073338 | 78 | 143 | 0.0 | 0.0 | 0.00 | 0.00 | 0.00 | 95 | 1018.0 |
| 20260904072833 | 78 | 143 | 0.0 | 0.0 | 0.00 | 0.00 | 0.00 | 95 | 1017.7 |
| 20260904072332 | 78 | 143 | 0.0 | 0.0 | 0.00 | 0.00 | 0.00 | 95 | 1017.8 |
| 20260904071829 | 78 | 143 | 0.0 | 0.0 | 0.00 | 0.00 | 0.00 | 95 | 1017.7 |
| 20260904071324 | 78 | 143 | 0.0 | 0.0 | 0.00 | 0.00 | 0.00 | 95 | 1017.9 |
| 20260904070819 | 78 | 143 | 0.0 | 0.0 | 0.00 | 0.00 | 0.00 | 95 | 1017.8 |
| 20260904070317 | 78 | 143 | 0.0 | 0.0 | 0.00 | 0.00 | 0.00 | 95 | 1017.7 |
| 20260904065812 | 79 | 143 | 0.0 | 0.0 | 0.00 | 0.00 | 0.00 | 95 | 1017.8 |
| 20260904065308 | 79 | 143 | 0.0 | 0.0 | 0.00 | 0.00 | 0.00 | 95 | 1018.0 |
| 20260904064803 | 78 | 143 | 0.0 | 0.0 | 0.00 | 0.00 | 0.00 | 95 | 1017.8 |
| 20260904064259 | 78 | 143 | 0.0 | 0.0 | 0.00 | 0.00 | 0.00 | 95 | 1017.9 |
| 20260904063755 | 78 | 143 | 0.0 | 0.0 | 0.00 | 0.00 | 0.00 | 94 | 1018.0 |
| 20260904063251 | 78 | 143 | 0.0 | 0.0 | 0.00 | 0.00 | 0.00 | 94 | 1017.8 |
| 20260904062746 | 78 | 143 | 0.0 | 0.0 | 0.00 | 0.00 | 0.00 | 94 | 1018.0 |
| 20260904062242 | 79 | 143 | 0.0 | 0.0 | 0.00 | 0.00 | 0.00 | 94 | 1018.1 |
| 20260904061737 | 79 | 143 | 0.0 | 0.0 | 0.00 | 0.00 | 0.00 | 94 | 1018.0 |
| 20260904061233 | 79 | 143 | 0.0 | 0.0 | 0.00 | 0.00 | 0.00 | 94 | 1018.2 |
| 20260904060730 | 79 | 143 | 0.0 | 0.0 | 0.00 | 0.00 | 0.00 | 94 | 1018.4 |
| 20260904060225 | 79 | 143 | 0.0 | 0.0 | 0.00 | 0.00 | 0.00 | 94 | 1018.1 |
| 20260904055720 | 79 | 143 | 0.0 | 0.0 | 0.00 | 0.00 | 0.00 | 94 | 1018.1 |
| 20260904055215 | 79 | 143 | 0.0 | 0.0 | 0.00 | 0.00 | 0.00 | 94 | 1018.4 |
| 20260904054710 | 79 | 143 | 0.0 | 0.0 | 0.00 | 0.00 | 0.00 | 94 | 1018.6 |
| 20260904054207 | 79 | 143 | 0.0 | 0.0 | 0.00 | 0.00 | 0.00 | 94 | 1018.6 |
| 20260904053701 | 79 | 143 | 0.0 | 0.0 | 0.00 | 0.00 | 0.00 | 94 | 1018.9 |
| 20260904053156 | 79 | 143 | 0.0 | 0.0 | 0.00 | 0.00 | 0.00 | 94 | 1018.8 |
| 20260904052653 | 79 | 143 | 0.0 | 0.0 | 0.00 | 0.00 | 0.00 | 93 | 1018.6 |
| 20260904052148 | 79 | 143 | 0.0 | 0.0 | 0.00 | 0.00 | 0.00 | 93 | 1018.7 |
| 20260904051644 | 79 | 143 | 0.0 | 0.0 | 0.00 | 0.00 | 0.00 | 93 | 1019.1 |
| 20260904051139 | 79 | 143 | 0.0 | 0.0 | 0.00 | 0.00 | 0.00 | 93 | 1018.9 |
| 20260904050635 | 79 | 143 | 0.0 | 0.0 | 0.00 | 0.00 | 0.00 | 93 | 1018.9 |
| 20260904050131 | 79 | 143 | 0.0 | 0.0 | 0.00 | 0.00 | 0.00 | 93 | 1018.8 |
| 20260904045630 | 79 | 143 | 0.0 | 0.0 | 0.00 | 0.00 | 0.00 | 93 | 1018.8 |
| 20260904045125 | 79 | 143 | 0.0 | 0.0 | 0.00 | 0.00 | 0.00 | 93 | 1018.9 |
| 20260904044621 | 79 | 143 | 0.0 | 0.0 | 0.00 | 0.00 | 0.00 | 93 | 1019.2 |
| 20260904044117 | 79 | 143 | 0.0 | 0.0 | 0.00 | 0.00 | 0.00 | 93 | 1018.8 |
| 20260904043613 | 79 | 142 | 0.0 | 0.0 | 0.00 | 0.00 | 0.00 | 93 | 1019.0 |
| 20260904043109 | 79 | 142 | 0.0 | 0.0 | 0.00 | 0.00 | 0.00 | 93 | 1019.0 |
| 20260904042605 | 79 | 142 | 0.0 | 0.0 | 0.00 | 0.00 | 0.00 | 92 | 1018.9 |
| 20260904042100 | 79 | 143 | 0.0 | 0.0 | 0.00 | 0.00 | 0.00 | 92 | 1019.1 |
| 20260904041555 | 79 | 140 | 0.0 | 0.0 | 0.00 | 0.00 | 0.00 | 92 | 1019.0 |
| 20260904041052 | 79 | 144 | 0.0 | 0.0 | 0.00 | 0.00 | 0.00 | 92 | 1018.8 |
| 20260904040552 | 79 | 144 | 0.0 | 0.0 | 0.00 | 0.00 | 0.00 | 92 | 1018.8 |
| 20260904040049 | 79 | 144 | 0.0 | 0.0 | 0.00 | 0.00 | 0.00 | 92 | 1019.2 |
| 20260904035548 | 79 | 142 | 0.0 | 0.0 | 0.00 | 0.00 | 0.00 | 92 | 1018.9 |
| 20260904035043 | 79 | 142 | 0.0 | 0.0 | 0.00 | 0.00 | 0.00 | 92 | 1019.1 |
| 20260904034538 | 79 | 144 | 0.0 | 0.0 | 0.00 | 0.00 | 0.00 | 92 | 1018.9 |
| 20260904034033 | 79 | 144 | 0.0 | 0.0 | 0.00 | 0.00 | 0.00 | 91 | 1018.9 |
| 20260904033529 | 79 | 144 | 0.0 | 0.0 | 0.00 | 0.00 | 0.00 | 91 | 1019.2 |
| 20260904033026 | 79 | 144 | 0.0 | 0.0 | 0.00 | 0.00 | 0.00 | 91 | 1019.1 |
| 20260904032521 | 79 | 144 | 0.0 | 0.0 | 0.00 | 0.00 | 0.00 | 91 | 1019.3 |
| 20260904032020 | 79 | 144 | 0.0 | 0.0 | 0.00 | 0.00 | 0.00 | 91 | 1019.1 |
| 20260904031515 | 79 | 144 | 0.0 | 0.0 | 0.00 | 0.00 | 0.00 | 91 | 1019.2 |
| 20260904031012 | 79 | 143 | 0.0 | 0.0 | 0.00 | 0.00 | 0.00 | 91 | 1019.2 |
| 20260904030507 | 79 | 143 | 0.0 | 0.0 | 0.00 | 0.00 | 0.00 | 91 | 1019.0 |
| 20260904030002 | 79 | 144 | 0.0 | 0.0 | 0.00 | 0.00 | 0.00 | 91 | 1018.9 |
| 20260904025458 | 79 | 143 | 0.0 | 0.0 | 0.00 | 0.00 | 0.00 | 91 | 1019.0 |
| 20260904024958 | 79 | 143 | 0.0 | 0.0 | 0.00 | 0.00 | 0.00 | 91 | 1018.9 |
| 20260904024453 | 79 | 143 | 0.0 | 0.0 | 0.00 | 0.00 | 0.00 | 91 | 1018.8 |
| 20260904023949 | 79 | 144 | 0.0 | 0.0 | 0.00 | 0.00 | 0.00 | 91 | 1018.7 |
| 20260904023445 | 79 | 146 | 0.0 | 0.0 | 0.00 | 0.00 | 0.00 | 90 | 1018.5 |
| 20260904022944 | 79 | 146 | 0.0 | 0.0 | 0.00 | 0.00 | 0.00 | 90 | 1018.5 |
| 20260904022440 | 79 | 146 | 0.0 | 0.0 | 0.00 | 0.00 | 0.00 | 90 | 1018.6 |
| 20260904021937 | 79 | 143 | 0.0 | 0.0 | 0.00 | 0.00 | 0.00 | 90 | 1018.6 |
| 20260904021432 | 80 | 127 | 1.0 | 1.0 | 0.00 | 0.00 | 0.00 | 90 | 1018.8 |
| 20260904020927 | 80 | 142 | 0.0 | 0.0 | 0.00 | 0.00 | 0.00 | 90 | 1018.6 |
| 20260904020422 | 80 | 142 | 0.0 | 0.0 | 0.00 | 0.00 | 0.00 | 90 | 1018.7 |
| 20260904015920 | 80 | 143 | 0.0 | 0.0 | 0.00 | 0.00 | 0.00 | 90 | 1018.4 |
| 20260904015417 | 80 | 146 | 0.0 | 0.0 | 0.00 | 0.00 | 0.00 | 89 | 1018.7 |
| 20260904014915 | 80 | 146 | 0.0 | 0.0 | 0.00 | 0.00 | 0.00 | 89 | 1018.6 |
| 20260904014410 | 80 | 148 | 0.0 | 0.0 | 0.00 | 0.00 | 0.00 | 89 | 1018.4 |
| 20260904013906 | 80 | 149 | 0.0 | 0.0 | 0.00 | 0.00 | 0.00 | 89 | 1018.5 |
| 20260904013402 | 80 | 143 | 0.0 | 0.0 | 0.00 | 0.00 | 0.00 | 89 | 1018.8 |
| 20260904012857 | 80 | 142 | 0.0 | 0.0 | 0.00 | 0.00 | 0.00 | 89 | 1018.5 |
| 20260904012352 | 80 | 145 | 0.0 | 0.0 | 0.00 | 0.00 | 0.00 | 88 | 1018.8 |
| 20260904011851 | 80 | 144 | 0.0 | 0.0 | 0.00 | 0.00 | 0.00 | 88 | 1018.5 |
| 20260904011346 | 80 | 141 | 0.0 | 0.0 | 0.00 | 0.00 | 0.00 | 89 | 1018.7 |
| 20260904010841 | 80 | 154 | 0.0 | 0.0 | 0.00 | 0.00 | 0.00 | 89 | 1018.6 |
| 20260904010338 | 80 | 148 | 0.0 | 0.0 | 0.00 | 0.00 | 0.00 | 89 | 1018.4 |
| 20260904005832 | 80 | 145 | 0.0 | 0.0 | 0.00 | 0.00 | 0.00 | 89 | 1018.4 |
| 20260904005328 | 80 | 114 | 0.0 | 0.0 | 0.00 | 0.00 | 0.00 | 90 | 1018.5 |
| 20260904004829 | 80 | 145 | 0.0 | 0.0 | 0.00 | 0.00 | 0.00 | 89 | 1018.5 |
| 20260904004326 | 80 | 150 | 0.0 | 0.0 | 0.00 | 0.00 | 0.00 | 89 | 1018.4 |
| 20260904003820 | 80 | 130 | 0.0 | 0.0 | 0.00 | 0.00 | 0.00 | 89 | 1018.5 |
| 20260904003316 | 80 | 142 | 0.0 | 0.0 | 0.00 | 0.00 | 0.00 | 89 | 1018.2 |
| 20260904002811 | 80 | 134 | 0.0 | 0.0 | 0.00 | 0.00 | 0.00 | 89 | 1018.5 |
| 20260904002307 | 80 | 155 | 0.0 | 0.0 | 0.00 | 0.00 | 0.00 | 89 | 1018.4 |
| 20260904001807 | 80 | 145 | 0.0 | 0.0 | 0.00 | 0.00 | 0.00 | 89 | 1018.5 |
| 20260904001302 | 80 | 156 | 0.0 | 0.0 | 0.00 | 0.00 | 0.00 | 89 | 1018.3 |
| 20260904000757 | 80 | 141 | 0.0 | 0.0 | 0.00 | 0.00 | 0.00 | 89 | 1018.2 |
| 20260904000251 | 80 | 134 | 0.0 | 0.0 | 0.00 | 0.00 | 0.00 | 89 | 1018.5 |
| 20260903235750 | 81 | 148 | 0.0 | 0.0 | 0.00 | 0.00 | 0.00 | 88 | 1018.2 |
| 20260903235247 | 81 | 153 | 0.0 | 0.0 | 0.00 | 0.00 | 0.00 | 88 | 1018.2 |
| 20260903234746 | 81 | 137 | 0.0 | 0.0 | 0.00 | 0.00 | 0.00 | 88 | 1018.2 |
| 20260903234243 | 81 | 148 | 0.0 | 0.0 | 0.00 | 0.00 | 0.00 | 88 | 1018.3 |
| 20260903233738 | 81 | 147 | 0.0 | 0.0 | 0.00 | 0.00 | 0.00 | 87 | 1018.2 |
| 20260903233234 | 81 | 150 | 0.0 | 0.0 | 0.00 | 0.00 | 0.00 | 87 | 1018.0 |
| 20260903232732 | 82 | 145 | 2.0 | 2.0 | 0.00 | 0.00 | 0.00 | 87 | 1018.1 |
| 20260903232229 | 82 | 152 | 0.0 | 0.0 | 0.00 | 0.00 | 0.00 | 86 | 1017.9 |
| 20260903231728 | 82 | 113 | 0.0 | 1.0 | 0.00 | 0.00 | 0.00 | 86 | 1017.8 |
| 20260903231223 | 82 | 156 | 1.0 | 1.0 | 0.00 | 0.00 | 0.00 | 85 | 1017.9 |
| 20260903230719 | 82 | 107 | 1.0 | 2.0 | 0.00 | 0.00 | 0.00 | 84 | 1017.9 |
| 20260903230214 | 83 | 147 | 0.0 | 1.0 | 0.00 | 0.00 | 0.00 | 84 | 1017.6 |
| 20260903225711 | 83 | 135 | 1.0 | 1.0 | 0.00 | 0.00 | 0.00 | 83 | 1017.8 |
| 20260903225207 | 84 | 108 | 3.0 | 3.0 | 0.00 | 0.00 | 0.00 | 82 | 1017.7 |
| 20260903224703 | 84 | 150 | 0.0 | 0.0 | 0.00 | 0.00 | 0.00 | 82 | 1017.7 |
| 20260903224158 | 84 | 131 | 1.0 | 2.0 | 0.00 | 0.00 | 0.00 | 81 | 1017.8 |
| 20260903223653 | 84 | 79 | 1.0 | 2.0 | 0.00 | 0.00 | 0.00 | 81 | 1018.1 |
| 20260903223152 | 85 | 125 | 0.0 | 0.0 | 0.00 | 0.00 | 0.00 | 80 | 1017.8 |
| 20260903222651 | 85 | 145 | 0.0 | 0.0 | 0.00 | 0.00 | 0.00 | 80 | 1017.7 |
| 20260903222150 | 84 | 152 | 0.0 | 1.0 | 0.00 | 0.00 | 0.00 | 81 | 1017.7 |
| 20260903221646 | 84 | 118 | 1.0 | 1.0 | 0.00 | 0.00 | 0.00 | 81 | 1017.8 |
| 20260903221144 | 84 | 162 | 0.0 | 1.0 | 0.00 | 0.00 | 0.00 | 80 | 1017.6 |
| 20260903220643 | 85 | 129 | 1.0 | 1.0 | 0.00 | 0.00 | 0.00 | 80 | 1017.6 |
| 20260903220138 | 85 | 145 | 0.0 | 1.0 | 0.00 | 0.00 | 0.00 | 80 | 1017.5 |
| 20260903215637 | 87 | 154 | 0.0 | 0.0 | 0.00 | 0.00 | 0.00 | 78 | 1017.1 |
| 20260903215132 | 87 | 78 | 2.0 | 3.0 | 0.00 | 0.00 | 0.00 | 77 | 1017.0 |
| 20260903214630 | 87 | 115 | 3.0 | 5.0 | 0.00 | 0.00 | 0.00 | 77 | 1017.0 |
| 20260903214126 | 87 | 135 | 4.0 | 6.0 | 0.00 | 0.00 | 0.00 | 77 | 1016.8 |
| 20260903213621 | 89 | 114 | 3.0 | 5.0 | 0.00 | 0.00 | 0.00 | 76 | 1016.9 |
| 20260903213117 | 89 | 155 | 1.0 | 1.0 | 0.00 | 0.00 | 0.00 | 74 | 1016.9 |
| 20260903212613 | 90 | 162 | 2.0 | 2.0 | 0.00 | 0.00 | 0.00 | 74 | 1016.7 |
| 20260903212108 | 90 | 138 | 1.0 | 1.0 | 0.00 | 0.00 | 0.00 | 75 | 1016.8 |
| 20260903211603 | 89 | 164 | 1.0 | 1.0 | 0.00 | 0.00 | 0.00 | 74 | 1016.7 |
| 20260903211100 | 88 | 171 | 1.0 | 1.0 | 0.00 | 0.00 | 0.00 | 76 | 1017.0 |
| 20260903210554 | 88 | 132 | 2.0 | 2.0 | 0.00 | 0.00 | 0.00 | 76 | 1016.9 |
| 20260903210050 | 88 | 141 | 0.0 | 1.0 | 0.00 | 0.00 | 0.00 | 75 | 1017.0 |
| 20260903205549 | 87 | 140 | 0.0 | 0.0 | 0.00 | 0.00 | 0.00 | 77 | 1017.2 |
| 20260903205043 | 88 | 83 | 3.0 | 6.0 | 0.00 | 0.00 | 0.00 | 76 | 1017.1 |
| 20260903204540 | 88 | 149 | 0.0 | 0.0 | 0.00 | 0.00 | 0.00 | 76 | 1017.0 |
| 20260903204035 | 88 | 90 | 3.0 | 3.0 | 0.00 | 0.00 | 0.00 | 75 | 1017.1 |
| 20260903203531 | 91 | 56 | 1.0 | 1.0 | 0.00 | 0.00 | 0.00 | 74 | 1017.2 |
| 20260903203030 | 90 | 147 | 0.0 | 0.0 | 0.00 | 0.00 | 0.00 | 73 | 1017.2 |
| 20260903202526 | 91 | 156 | 0.0 | 1.0 | 0.00 | 0.00 | 0.00 | 71 | 1017.6 |
| 20260903202021 | 90 | 148 | 0.0 | 0.0 | 0.00 | 0.00 | 0.00 | 71 | 1017.3 |
| 20260903201516 | 89 | 133 | 1.0 | 1.0 | 0.00 | 0.00 | 0.00 | 73 | 1017.4 |
| 20260903201015 | 89 | 81 | 2.0 | 2.0 | 0.00 | 0.00 | 0.00 | 73 | 1017.6 |
| 20260903200510 | 89 | 91 | 3.0 | 3.0 | 0.00 | 0.00 | 0.00 | 74 | 1017.5 |
| 20260903200005 | 88 | 137 | 1.0 | 2.0 | 0.00 | 0.00 | 0.00 | 74 | 1017.6 |
| 20260903195501 | 88 | 57 | 4.0 | 9.0 | 0.00 | 0.00 | 0.00 | 74 | 1017.8 |
| 20260903194956 | 88 | 186 | 3.0 | 3.0 | 0.00 | 0.00 | 0.00 | 76 | 1017.8 |
| 20260903194451 | 88 | 128 | 3.0 | 3.0 | 0.00 | 0.00 | 0.00 | 75 | 1017.9 |
| 20260903193946 | 89 | 125 | 1.0 | 2.0 | 0.00 | 0.00 | 0.00 | 74 | 1017.9 |
| 20260903193443 | 88 | 37 | 3.0 | 5.0 | 0.00 | 0.00 | 0.00 | 76 | 1018.1 |
| 20260903192937 | 88 | 113 | 2.0 | 3.0 | 0.00 | 0.00 | 0.00 | 76 | 1018.0 |
| 20260903192435 | 89 | 91 | 3.0 | 3.0 | 0.00 | 0.00 | 0.00 | 75 | 1018.2 |
| 20260903191930 | 89 | 141 | 2.0 | 2.0 | 0.00 | 0.00 | 0.00 | 74 | 1018.1 |
| 20260903191426 | 90 | 99 | 1.0 | 2.0 | 0.00 | 0.00 | 0.00 | 75 | 1018.1 |
| 20260903190925 | 89 | 137 | 0.0 | 0.0 | 0.00 | 0.00 | 0.00 | 75 | 1017.9 |
| 20260903190425 | 89 | 109 | 2.0 | 3.0 | 0.00 | 0.00 | 0.00 | 75 | 1018.1 |
| 20260903185919 | 91 | 154 | 0.0 | 1.0 | 0.00 | 0.00 | 0.00 | 74 | 1018.1 |
| 20260903185415 | 89 | 122 | 0.0 | 1.0 | 0.00 | 0.00 | 0.00 | 75 | 1018.1 |
| 20260903184910 | 89 | 101 | 2.0 | 3.0 | 0.00 | 0.00 | 0.00 | 75 | 1018.3 |
| 20260903184407 | 88 | 117 | 2.0 | 2.0 | 0.00 | 0.00 | 0.00 | 75 | 1018.2 |
| 20260903183907 | 88 | 178 | 0.0 | 0.0 | 0.00 | 0.00 | 0.00 | 75 | 1018.4 |
| 20260903183401 | 90 | 127 | 1.0 | 1.0 | 0.00 | 0.00 | 0.00 | 75 | 1018.2 |
| 20260903182901 | 90 | 123 | 1.0 | 2.0 | 0.00 | 0.00 | 0.00 | 74 | 1018.6 |
| 20260903182359 | 90 | 139 | 0.0 | 0.0 | 0.00 | 0.00 | 0.00 | 75 | 1018.5 |
| 20260903181854 | 89 | 142 | 2.0 | 2.0 | 0.00 | 0.00 | 0.00 | 77 | 1018.5 |
| 20260903181349 | 89 | 149 | 1.0 | 1.0 | 0.00 | 0.00 | 0.00 | 77 | 1018.7 |
| 20260903180843 | 88 | 66 | 3.0 | 3.0 | 0.00 | 0.00 | 0.00 | 78 | 1018.9 |
| 20260903180337 | 87 | 133 | 1.0 | 1.0 | 0.00 | 0.00 | 0.00 | 79 | 1019.0 |
| 20260903175831 | 86 | 137 | 1.0 | 1.0 | 0.00 | 0.00 | 0.00 | 81 | 1018.9 |
| 20260903175331 | 85 | 150 | 0.0 | 1.0 | 0.00 | 0.00 | 0.00 | 84 | 1018.8 |
| 20260903174825 | 85 | 148 | 1.0 | 2.0 | 0.00 | 0.00 | 0.00 | 83 | 1018.8 |